Location: Dompnac
(44.5644°N, 4.1026°E)
Time: 11:27:06
(UTC+00:00)

Cosmos 2151 Rocket - Pass Details

Date: 19 September 2020
Orbit: 617 x 642 km, 82.5° (Epoch: 29 October)

Event Time Altitude Azimuth Distance (km) Brightness Sun altitude
Rises 19:03:47 0° 175° (S) 2,898 6.8 -14.5°
Reaches altitude 10° 19:06:01 10° 171° (S) 2,000 5.9 -14.9°
Maximum altitude 19:10:20 54° 94° (E) 773 3.7 -15.6°
Drops below altitude 10° 19:14:44 10° 18° (NNE) 2,031 6.2 -16.3°
Sets 19:17:01 0° 14° (NNE) 2,949 7.1 -16.7°
